星链-35839(STARLINK-35839)

导读

STARLINK-35839是美国太空探索技术公司(SpaceX)于2025年12月17日发射的星链(Starlink)低轨互联网卫星,隶属于SpaceX打造的星链星座系统。该卫星部署于近地轨道,配备先进激光通信终端,可支撑高速星际数据传输,为全球尤其是偏远地区提供低延迟、高带宽的宽带互联网接入服务,进一步扩充了星链星座的组网规模与全球覆盖能力,助力天地一体化网络构建。

基本信息
目录编号:
67169
目录名称:
STARLINK-35839
国际标识:
2025-303G
轨道中心:
EARTH
卫星名称:
星链-35839
卫星全名:
星链-35839(STARLINK-35839)
卫星状态:
在轨 (已飞行178 天)
发射日期:
2025-12-17 UTC
国别 :
美国 (US)
星等 :
--
轨道信息
数据来源 国际轨道数据
星历时间: 2026-06-12T12:39:29+0800
1天前
查看轨道信息
半长轴: 6861.132km
偏心率: 0.0000739
轨道倾角: 42.999°
近地点辐角 247.108°
升交点赤经 137.412°
平近点角 112.969°
近地点: 482.487km
远地点: 483.503km
周期: 94.266分钟
每日圈数: 15.275984
详细信息
固有亮度:
5
最大亮度:
2.5
卫星平台:
Starlink V1.0
覆盖范围:
全球
运营商:
太空探索技术公司
运营商所在国:
美国
制造商(研发单位):
太空探索技术公司
制造商所在国:
美国
使用方式:
暂无
卫星简介
Starlink 计划是 SpaceX 推出的全球卫星互联网项目,通过发射低轨道卫星,为全球尤其是偏远地区提供高速、低延迟的互联网服务。自 2019 年起,Starlink 已部署数千颗卫星,旨在缩小全球数字鸿沟,推动互联网普及。该项目还为军事、航空等行业提供通信支持,带来广泛经济效益。
2D轨道图
3D轨道图
轨道高度分析图
轨道倾角分析图
轨道综合分析图
查看轨道综合分析图